DW5683 Weather Reports


time (UTC)temp
C
wind
direction
speed
KPH
gust
KPH
rain 1hr
cm
rain 24hr
cm
rain mn
cm
humidity
%
barometer
mb
20260906004544 27 0 0.0 4.8 0.00 0.00 0.00 36 1012.1
20260906003043 27 0 0.0 6.4 0.00 0.00 0.00 35 1012.3
20260906001548 27 182 0.0 4.8 0.00 0.00 0.00 35 1012.2
20260906000050 27 182 0.0 8.0 0.00 0.00 0.00 34 1012.2
20260905234545 28 182 0.0 14.5 0.00 0.00 0.00 33 1012.3
20260905233050 28 183 0.0 9.7 0.00 0.00 0.00 33 1012.3
20260905231547 28 0 0.0 9.7 0.00 0.00 0.00 34 1012.3
20260905230049 27 166 4.8 11.3 0.00 0.00 0.00 36 1012.5
20260905224602 28 0 3.2 9.7 0.00 0.00 0.00 33 1012.7
20260905223048 27 0 0.0 4.8 0.00 0.00 0.00 34 1012.9
20260905221556 28 196 0.0 12.9 0.00 0.00 0.00 35 1012.9
20260905220103 27 201 1.6 9.7 0.00 0.00 0.00 35 1012.9
20260905214547 28 201 0.0 14.5 0.00 0.00 0.00 34 1013.2
20260905213046 28 208 1.6 8.0 0.00 0.00 0.00 36 1013.2
20260905211543 27 208 1.6 9.7 0.00 0.00 0.00 37 1013.4
20260905210054 26 207 3.2 9.7 0.00 0.00 0.00 37 1013.5
20260905204549 26 212 1.6 8.0 0.00 0.00 0.00 35 1013.6
20260905203103 26 212 3.2 8.0 0.00 0.00 0.00 36 1013.8
20260905201545 26 214 3.2 9.7 0.00 0.00 0.00 37 1013.6
20260905200053 26 0 0.0 11.3 0.00 0.00 0.00 36 1013.8
20260905194545 26 215 4.8 11.3 0.00 0.00 0.00 40 1013.9
20260905193043 26 210 4.8 11.3 0.00 0.00 0.00 39 1014.0
20260905191548 26 209 3.2 9.7 0.00 0.00 0.00 39 1014.1
20260905190048 25 0 1.6 11.3 0.00 0.00 0.00 39 1014.2
20260905184545 25 215 1.6 9.7 0.00 0.00 0.00 41 1014.2
20260905183055 25 0 1.6 8.0 0.00 0.00 0.00 41 1014.2
20260905181602 26 206 1.6 9.7 0.00 0.00 0.00 45 1014.0
20260905180042 25 215 0.0 8.0 0.00 0.00 0.00 46 1014.1
20260905174549 24 0 0.0 8.0 0.00 0.00 0.00 48 1014.0
20260905173045 23 220 1.6 6.4 0.00 0.00 0.00 50 1014.0
20260905171545 23 219 1.6 4.8 0.00 0.00 0.00 51 1014.0
20260905170042 22 220 0.0 3.2 0.00 0.00 0.00 53 1013.9
20260905164548 22 0 0.0 3.2 0.00 0.00 0.00 55 1013.9
20260905163047 20 0 0.0 0.0 0.00 0.00 0.00 58 1013.8
20260905161541 19 0 0.0 0.0 0.00 0.00 0.00 62 1013.9
20260905160115 18 0 0.0 1.6 0.00 0.00 0.00 67 1013.9
20260905154549 16 0 0.0 0.0 0.00 0.00 0.00 72 1013.8
20260905153044 15 0 0.0 1.6 0.00 0.00 0.00 81 1014.1
20260905151546 12 0 0.0 1.6 0.00 0.00 0.00 92 1014.0
20260905150048 10 0 0.0 0.0 0.00 0.00 0.00 91 1014.0
20260905144549 10 0 0.0 0.0 0.00 0.00 0.00 91 1014.0
20260905143046 9 0 0.0 0.0 0.00 0.00 0.00 91 1014.0
20260905141543 8 0 0.0 0.0 0.00 0.00 0.00 90 1013.9
20260905140039 9 0 0.0 0.0 0.00 0.00 0.00 90 1013.8
20260905134544 9 0 0.0 0.0 0.00 0.00 0.00 90 1013.7
20260905133042 9 0 0.0 0.0 0.00 0.00 0.00 90 1013.6
20260905131548 9 0 0.0 0.0 0.00 0.00 0.00 90 1013.5
20260905130043 9 0 0.0 0.0 0.00 0.00 0.00 90 1013.5
20260905124542 9 0 0.0 0.0 0.00 0.00 0.00 90 1013.4
20260905123049 9 0 0.0 0.0 0.00 0.00 0.00 90 1013.5
20260905121546 10 0 0.0 0.0 0.00 0.00 0.00 90 1013.4
20260905120129 10 0 0.0 0.0 0.00 0.00 0.00 90 1013.5
20260905114547 10 0 0.0 0.0 0.00 0.00 0.00 90 1013.5
20260905113048 10 0 0.0 0.0 0.00 0.00 0.00 90 1013.5
20260905111554 10 0 0.0 0.0 0.00 0.00 0.00 90 1013.7
20260905110056 10 0 0.0 0.0 0.00 0.00 0.00 89 1013.8
20260905104545 10 0 0.0 0.0 0.00 0.03 0.00 89 1013.7
20260905103052 10 0 0.0 0.0 0.00 0.03 0.00 89 1013.9
20260905101545 10 0 0.0 0.0 0.00 0.03 0.00 88 1014.1
20260905100053 10 0 0.0 0.0 0.00 0.03 0.00 88 1014.0
20260905094549 10 0 0.0 0.0 0.00 0.05 0.00 88 1014.1
20260905093043 10 0 0.0 0.0 0.00 0.05 0.00 88 1014.0
20260905091612 10 0 0.0 0.0 0.00 0.05 0.00 87 1013.9
20260905090051 11 0 0.0 0.0 0.00 0.05 0.00 86 1013.8
20260905084554 11 0 0.0 0.0 0.00 0.13 0.00 86 1014.1
20260905083045 11 0 0.0 0.0 0.00 0.13 0.00 86 1013.9
20260905081542 11 0 0.0 0.0 0.00 0.13 0.00 85 1013.9
20260905080048 11 0 0.0 0.0 0.00 0.13 0.00 85 1013.6
20260905074547 11 0 0.0 0.0 0.00 0.18 0.00 84 1013.6
20260905073050 12 0 0.0 0.0 0.00 0.18 0.00 84 1013.5
20260905071545 12 0 0.0 0.0 0.00 0.18 0.00 82 1013.4
20260905070048 12 0 0.0 0.0 0.00 0.18 0.00 82 1013.4
20260905064546 12 0 0.0 0.0 0.00 0.18 0.18 80 1013.2
20260905063041 13 0 0.0 0.0 0.00 0.18 0.18 80 1013.2
20260905061606 13 0 0.0 0.0 0.00 0.18 0.18 80 1013.1
20260905060054 13 0 0.0 0.0 0.00 0.18 0.18 78 1013.2
20260905054543 13 0 0.0 0.0 0.00 0.28 0.18 77 1013.4
20260905053043 14 0 0.0 0.0 0.00 0.28 0.18 75 1013.4
20260905051542 14 0 0.0 0.0 0.00 0.28 0.18 73 1013.4
20260905050048 15 0 0.0 0.0 0.00 0.28 0.18 72 1013.5
20260905044543 15 0 0.0 0.0 0.00 0.30 0.18 70 1013.5
20260905043043 16 0 0.0 0.0 0.00 0.30 0.18 67 1013.3
20260905041559 16 0 0.0 0.0 0.00 0.30 0.18 65 1013.2
20260905040049 16 0 0.0 0.0 0.00 0.30 0.18 69 1012.9
20260905034553 17 0 0.0 0.0 0.00 0.30 0.18 67 1012.8
20260905033041 18 0 0.0 0.0 0.00 0.30 0.18 64 1012.7
20260905031547 19 0 0.0 0.0 0.00 0.30 0.18 61 1012.6
20260905030045 20 0 0.0 0.0 0.00 0.30 0.18 56 1012.4
20260905024541 22 0 0.0 3.2 0.00 0.30 0.18 47 1012.3
20260905023049 23 0 0.0 3.2 0.00 0.30 0.18 45 1012.1
20260905021552 23 220 1.6 4.8 0.00 0.30 0.18 43 1012.1
20260905020043 24 220 0.0 4.8 0.00 0.30 0.18 41 1012.1
20260905014542 24 220 1.6 6.4 0.00 0.30 0.18 41 1012.3
20260905013050 24 220 0.0 4.8 0.00 0.30 0.18 40 1012.0
20260905011547 25 0 1.6 8.0 0.00 0.30 0.18 39 1012.0
20260905010043 25 0 1.6 4.8 0.00 0.30 0.18 40 1012.0